Location: St. Louis
(38.6270°N, 90.1994°W)
Time: 19:30:42
(UTC-05:00)

deb Delta - Pass Details

Date: 06 July 2022
Orbit: 1084 x 1202 km, 99.8° (Epoch: 13 August)

Event Time Altitude Azimuth Distance (km) Brightness Sun altitude
Exits shadow 03:11:41 28° 251° (WSW) 2,095 ? -22.0°
Maximum altitude 03:12:42 29° 265° (W) 2,056 ? -21.8°
Drops below altitude 10° 03:18:44 10° 322° (NW) 3,125 ? -21.2°
Sets 03:21:48 0° 334° (NNW) 4,080 ? -20.9°
